Location: Brasstown Bald
(34.8693°N, 83.8103°W)
Time: 01:07:34
(UTC-04:00)

Amateur Radio Satellites - All Passes

Search period start: 25 June 2016 00:37
Search period end: 26 June 2016 00:37
Location: Brasstown Bald, 34.8693°N, 83.8103°W

Satellite Date Start Highest point End Downlink Frequencies (MHz)
Time Altitude Azimuth
50 SAT 25 Jun 00:42:01 00:45:40 63° 259° (W) 00:49:22 437.505
YUBILEINY 25 Jun 00:44:27 00:52:45 43° 77° (ENE) 01:01:01 435.215
AO-85 25 Jun 00:44:41 00:48:22 18° 312° (NW) 00:51:59 145.980
VELOX 1 25 Jun 00:45:46 00:50:11 72° 259° (W) 00:54:35 145.980
ANTELSAT 25 Jun 00:47:52 00:51:43 26° 289° (WNW) 00:55:35 437.575/2403.000
Cosmos 2504 25 Jun 00:47:57 00:51:02 12° 62° (ENE) 00:54:05 435.465 / 435.565
CUBEBUG 1 25 Jun 00:49:14 00:53:34 59° 260° (W) 00:57:52 437.445
ESTCUBE 1 25 Jun 01:04:57 01:08:49 27° 264° (W) 01:12:40 437.505/2401.250
NANOSAT C BR1 25 Jun 01:15:37 01:19:51 79° 284° (WNW) 01:24:06 145.865
QB50P1 25 Jun 01:16:05 01:20:20 73° 284° (WNW) 01:24:34 145.935-145.965
BUGSAT 1 25 Jun 01:16:59 01:20:50 40° 99° (E) 01:24:42 437.445
POPSAT HIP 1 25 Jun 01:18:53 01:23:08 69° 284° (WNW) 01:27:22 437.405
RS-15 25 Jun 01:26:14 01:33:07 17° 262° (W) 01:39:57 29.354- 29.394
AISAT 25 Jun 01:27:11 01:30:40 22° 264° (W) 01:34:09 437.250
QB50P2 25 Jun 01:30:14 01:34:19 46° 286° (WNW) 01:38:23 145.880/145.840
POLYITAN 1 25 Jun 01:32:51 01:36:55 45° 286° (WNW) 01:40:59 437.675
DUCHIFAT 1 25 Jun 01:38:31 01:42:31 43° 286° (WNW) 01:46:32 145.980
Cosmos 2491 25 Jun 01:47:32 01:56:11 65° 92° (E) 02:04:48 435.465 / 435.565
UKube-1 25 Jun 01:50:53 01:54:03 20° 264° (W) 01:57:14 .
TISAT 1 25 Jun 01:59:45 02:03:55 80° 77° (ENE) 02:08:05 437.305
SPROUT 25 Jun 02:00:26 02:03:49 23° 264° (W) 02:07:13 437.525
SWISSCUBE 25 Jun 02:02:47 02:05:52 17° 66° (ENE) 02:08:59 437.505
DX 1 25 Jun 02:04:39 02:06:05 11° 267° (W) 02:07:32 434.975-435.025
SO-50 25 Jun 02:07:36 02:11:29 26° 52° (NE) 02:15:17 436.795
JAS-2 25 Jun 02:10:19 02:16:01 68° 102° (ESE) 02:21:13 435.910
Oscar 19 25 Jun 02:16:19 02:20:38 27° 96° (E) 02:24:55 437.125/150
ITUPSAT 1 25 Jun 02:25:45 02:29:43 27° 69° (ENE) 02:33:43 437.325
BEESAT 25 Jun 02:27:28 02:31:30 28° 70° (ENE) 02:35:34 436.000
Cosmos 2504 25 Jun 02:37:07 02:46:03 72° 82° (E) 02:54:34 435.465 / 435.565
YUBILEINY 25 Jun 02:41:31 02:49:17 36° 274° (W) 02:57:03 435.215
BUGSAT 1 25 Jun 02:53:50 02:55:50 13° 293° (WNW) 02:57:52 437.445
BEESAT 3 25 Jun 03:12:14 03:14:09 13° 108° (ESE) 03:16:03 437.485
PCSat 25 Jun 03:29:25 03:34:43 58° 112° (ESE) 03:40:02 145.827
Gurwin Techsat 1B 25 Jun 03:38:20 03:43:40 76° 102° (ESE) 03:48:59 435.225
SWISSCUBE 25 Jun 03:38:46 03:43:18 43° 261° (W) 03:47:51 437.505
BEESAT 2 25 Jun 03:41:15 03:43:38 16° 109° (ESE) 03:46:02 435.950
MOZHAYETS 4 25 Jun 03:44:36 03:47:40 18° 67° (ENE) 03:50:44
Cosmos 2491 25 Jun 03:46:53 03:53:35 24° 290° (WNW) 04:00:18 435.465 / 435.565
SO-50 25 Jun 03:47:56 03:51:55 29° 248° (WSW) 03:55:47 436.795
Oscar 19 25 Jun 03:55:27 03:59:52 30° 291° (WNW) 04:04:16 437.125/150
JAS-2 25 Jun 03:57:41 04:00:17 13° 300° (WNW) 04:02:48 435.910
ITUPSAT 1 25 Jun 04:03:24 04:07:26 27° 263° (W) 04:11:30 437.325
BEESAT 25 Jun 04:05:18 04:09:13 25° 264° (W) 04:13:09 436.000
ITAMSAT 1 25 Jun 04:08:17 04:13:22 50° 100° (E) 04:18:24 435.822/435.867
O/OREOS (USA 219) 25 Jun 04:14:40 04:19:10 79° 107° (ESE) 04:23:40 437.305
KKS-1 25 Jun 04:22:57 04:27:16 55° 74° (ENE) 04:31:35 437.445
Cosmos 2504 25 Jun 04:32:19 04:38:25 21° 279° (W) 04:44:25 435.465 / 435.565
AIST 1 25 Jun 04:32:24 04:33:03 10° 72° (ENE) 04:33:43
BEESAT 3 25 Jun 04:47:45 04:51:26 39° 303° (WNW) 04:55:10 437.485
AO-7 25 Jun 04:54:36 05:02:42 51° 102° (ESE) 05:10:44 29.400- 29.500
CUBESAT XI-V 25 Jun 05:01:52 05:04:10 14° 66° (ENE) 05:06:27 437.345
STARS 25 Jun 05:06:17 05:10:38 85° 78° (ENE) 05:15:01 437.465
PCSat 25 Jun 05:14:46 05:18:29 18° 309° (NW) 05:22:13 145.827
BEESAT 2 25 Jun 05:17:32 05:21:09 34° 304° (NW) 05:24:49 435.950
MOZHAYETS 4 25 Jun 05:20:13 05:24:30 38° 262° (W) 05:28:50
Gurwin Techsat 1B 25 Jun 05:20:54 05:22:55 12° 298° (WNW) 05:24:55 435.225
AIST 2 25 Jun 05:27:59 05:29:19 11° 107° (ESE) 05:30:38 435.215
Cosmos 2499 25 Jun 05:36:34 05:39:32 12° 62° (ENE) 05:42:27 435.465 / 435.565
HORYU 2 25 Jun 05:43:16 05:46:57 24° 96° (E) 05:50:36 437.375
ITAMSAT 1 25 Jun 05:48:59 05:52:24 18° 295° (WNW) 05:55:47 435.822/435.867
KKS-1 25 Jun 06:03:05 06:04:07 11° 268° (W) 06:05:08 437.445
AIST 1 25 Jun 06:06:49 06:10:56 50° 267° (W) 06:15:02
CUBESAT XI-V 25 Jun 06:36:27 06:41:03 54° 260° (W) 06:45:40 437.345
GONETS M04 25 Jun 06:41:05 06:49:38 56° 80° (E) 06:58:09
NOAA 18 25 Jun 06:46:12 06:49:57 18° 94° (E) 06:53:40 137.9125
AO-7 25 Jun 06:47:54 06:55:05 34° 298° (WNW) 07:02:16 29.400- 29.500
NOAA 15 25 Jun 07:00:51 07:05:32 32° 98° (E) 07:10:10 137.62
AIST 2 25 Jun 07:03:19 07:07:18 50° 302° (WNW) 07:11:20 435.215
HORYU 2 25 Jun 07:19:41 07:23:24 26° 290° (WNW) 07:27:06 437.375
Cubesat XI-IV 25 Jun 07:23:18 07:28:18 38° 98° (E) 07:33:17 437.490
LilacSat-2 25 Jun 07:25:02 07:28:38 36° 98° (E) 07:32:13 437.200
Cosmos 2499 25 Jun 07:25:29 07:34:19 72° 82° (E) 07:42:35 435.465 / 435.565
CUSAT 1 25 Jun 07:31:48 07:37:27 22° 87° (E) 07:42:45 437.405
PHONESAT 2.4 25 Jun 07:37:49 07:39:03 12° 142° (SE) 07:40:17 2401.200-2431.200
AO-85 25 Jun 07:38:37 07:42:00 21° 49° (NE) 07:45:11 145.980
BRITE-PL 25 Jun 07:40:23 07:44:33 84° 103° (ESE) 07:48:43 437.365/2234.400
STRAND 1 25 Jun 07:58:03 08:03:09 71° 75° (ENE) 08:08:17 437.568
CUTE-I 25 Jun 07:58:41 08:04:05 87° 103° (ESE) 08:09:27 437.470
PRISM 25 Jun 08:14:58 08:16:50 13° 66° (ENE) 08:18:41 437.425
DOVE 4 25 Jun 08:16:38 08:20:39 38° 99° (E) 08:24:50 437.250
NOAA 18 25 Jun 08:25:28 08:30:49 50° 288° (WNW) 08:36:08 137.9125
CANX-2 25 Jun 08:30:17 08:32:30 14° 93° (E) 08:34:43 2200.000
HO-68 25 Jun 08:32:15 08:37:37 22° 94° (E) 08:42:57 435.675
GOMX 1 25 Jun 08:34:16 08:38:20 53° 285° (WNW) 08:42:32 467.674
GONETS M04 25 Jun 08:38:57 08:45:49 27° 276° (W) 08:52:43
NOAA 15 25 Jun 08:40:50 08:45:07 26° 292° (WNW) 08:49:25 137.62
CUTE 1.7 + AOD 2 25 Jun 08:50:11 08:53:26 21° 95° (E) 08:56:39 437.475
DANDE 25 Jun 08:56:54 09:04:47 52° 92° (E) 09:12:40 436.750
LilacSat-2 25 Jun 09:00:45 09:02:34 13° 292° (WNW) 09:04:24 437.200
SEEDS 25 Jun 09:01:29 09:04:36 20° 95° (E) 09:07:41 437.485
Cubesat XI-IV 25 Jun 09:03:55 09:08:06 24° 293° (WNW) 09:12:17 437.490
CUSAT 1 25 Jun 09:11:03 09:19:04 69° 279° (W) 09:26:15 437.405
PHONESAT 2.4 25 Jun 09:12:14 09:15:18 81° 156° (SSE) 09:18:22 2401.200-2431.200
AO-85 25 Jun 09:18:38 09:22:31 32° 248° (WSW) 09:26:08 145.980
Cosmos 2499 25 Jun 09:20:29 09:26:24 21° 280° (W) 09:32:06 435.465 / 435.565
UWE-3 25 Jun 09:25:25 09:27:17 12° 92° (E) 09:29:09 435.000/436.395/437.385
ISS 25 Jun 09:35:15 09:37:32 18° 129° (SE) 09:39:51 145.825
CINEMA 3 25 Jun 09:40:32 09:45:03 83° 284° (WNW) 09:49:47 145.822/145.860
STRAND 1 25 Jun 09:41:35 09:42:45 11° 269° (W) 09:43:55 437.568
CUTE-I 25 Jun 09:42:14 09:43:20 11° 299° (WNW) 09:44:26 437.470
PRISM 25 Jun 09:47:44 09:51:43 44° 260° (W) 09:55:42 437.425
AAUSAT CUBESAT 2 25 Jun 09:51:07 09:55:06 42° 99° (E) 09:59:01 437.432
DOVE 4 25 Jun 09:55:31 09:58:04 16° 291° (WNW) 10:00:43 437.250
CUBEBUG 2 25 Jun 10:03:52 10:08:21 52° 100° (E) 10:12:56 437.445
AUBIESAT-1 25 Jun 10:03:59 10:07:19 26° 103° (ESE) 10:10:51 437.475
CANX-2 25 Jun 10:04:29 10:08:31 40° 286° (WNW) 10:12:30 2200.000
ANTELSAT 25 Jun 10:08:18 10:10:38 14° 67° (ENE) 10:12:59 437.575/2403.000
HO-68 25 Jun 10:18:36 10:25:40 60° 289° (WNW) 10:32:41 435.675
COMPASS 1 25 Jun 10:21:13 10:25:23 61° 283° (WNW) 10:29:28 437.405
CUTE 1.7 + AOD 2 25 Jun 10:25:36 10:29:13 27° 289° (WNW) 10:32:47 437.475
DELFI C3 25 Jun 10:35:37 10:38:43 21° 95° (E) 10:41:46 145.870
SEEDS 25 Jun 10:36:39 10:40:15 28° 289° (WNW) 10:43:50 437.485
M-CUBED/EXP-1 PRIME 25 Jun 10:39:26 10:43:17 86° 287° (WNW) 10:47:27 437.505
DANDE 25 Jun 10:40:27 10:47:47 34° 287° (WNW) 10:55:02 436.750
ZACube-1 25 Jun 10:47:08 10:51:41 72° 102° (ESE) 10:56:14 437.345
PHONESAT 2.4 25 Jun 10:49:20 10:52:07 30° 352° (N) 10:54:55 2401.200-2431.200
HUMSAT D 25 Jun 10:58:53 11:02:00 19° 95° (E) 11:05:06 437.325/437.525
TIGRISAT 25 Jun 10:58:59 11:03:07 53° 75° (ENE) 11:07:20 435.000
UWE-3 25 Jun 10:59:30 11:03:58 53° 285° (WNW) 11:08:29 435.000/436.395/437.385
CUSAT 1 25 Jun 10:59:52 11:01:56 11° 293° (WNW) 11:03:58 437.405
UNISAT 6 25 Jun 11:02:43 11:06:55 64° 75° (ENE) 11:11:13 437.425
Oscar 11 25 Jun 11:04:47 11:09:07 66° 285° (WNW) 11:13:25 145.826/435.025
FUNcube-1 25 Jun 11:06:54 11:11:25 72° 284° (WNW) 11:15:57 145.935
ISS 25 Jun 11:10:47 11:13:47 33° 323° (NW) 11:16:48 145.825
RS-15 25 Jun 11:21:23 11:28:39 20° 99° (E) 11:36:06 29.354- 29.394
AAUSAT CUBESAT 2 25 Jun 11:28:10 11:30:10 13° 293° (WNW) 11:32:08 437.432
AUBIESAT-1 25 Jun 11:38:44 11:41:38 20° 293° (WNW) 11:44:42 437.475
CUBEBUG 2 25 Jun 11:42:16 11:44:31 14° 293° (WNW) 11:46:48 437.445
ANTELSAT 25 Jun 11:42:56 11:46:57 40° 261° (W) 11:51:03 437.575/2403.000
Cosmos 2491 25 Jun 12:02:59 12:10:00 26° 71° (ENE) 12:16:58 435.465 / 435.565
NANOSAT C BR1 25 Jun 12:04:18 12:08:18 46° 74° (ENE) 12:12:19 145.865
BUGSAT 1 25 Jun 12:04:26 12:07:11 18° 69° (ENE) 12:09:55 437.445
QB50P1 25 Jun 12:05:01 12:09:04 50° 75° (ENE) 12:13:08 145.935-145.965
POPSAT HIP 1 25 Jun 12:07:50 12:11:55 54° 75° (ENE) 12:16:00 437.405
DELFI C3 25 Jun 12:10:19 12:13:27 22° 289° (WNW) 12:16:34 145.870
50 SAT 25 Jun 12:15:55 12:17:43 13° 94° (E) 12:19:30 437.505
JAS-2 25 Jun 12:17:50 12:23:55 26° 66° (ENE) 12:29:40 435.910
QB50P2 25 Jun 12:19:03 12:23:14 82° 78° (ENE) 12:27:27 145.880/145.840
DX 1 25 Jun 12:19:28 12:20:38 11° 92° (E) 12:21:48 434.975-435.025
PCSat 25 Jun 12:21:11 12:25:33 24° 54° (NE) 12:29:53 145.827
POLYITAN 1 25 Jun 12:21:40 12:25:51 84° 81° (E) 12:30:03 437.675
PHONESAT 2.4 25 Jun 12:26:24 12:29:12 30° 8° (N) 12:31:59 2401.200-2431.200
DUCHIFAT 1 25 Jun 12:26:34 12:30:43 84° 77° (ENE) 12:34:54 145.980
HUMSAT D 25 Jun 12:33:51 12:37:36 30° 288° (WNW) 12:41:20 437.325/437.525
VELOX 1 25 Jun 12:39:38 12:43:21 27° 97° (E) 12:47:03 145.980
TIGRISAT 25 Jun 12:40:06 12:40:08 10° 269° (W) 12:40:10 435.000
CUBEBUG 1 25 Jun 12:41:23 12:45:12 30° 97° (E) 12:49:01 437.445
ESTCUBE 1 25 Jun 12:59:56 13:04:27 81° 103° (ESE) 13:08:56 437.505/2401.250
BEESAT 3 25 Jun 13:07:54 13:11:35 36° 57° (ENE) 13:15:15 437.485
AISAT 25 Jun 13:19:28 13:23:52 86° 103° (ESE) 13:28:15 437.250
RS-15 25 Jun 13:27:59 13:39:18 88° 298° (WNW) 13:51:20 29.354- 29.394
Oscar 19 25 Jun 13:29:59 13:34:21 29° 69° (ENE) 13:38:43 437.125/150
BEESAT 2 25 Jun 13:38:16 13:42:06 43° 58° (ENE) 13:45:53 435.950
BUGSAT 1 25 Jun 13:38:52 13:42:21 28° 263° (W) 13:45:49 437.445
UKube-1 25 Jun 13:39:51 13:44:11 86° 101° (E) 13:48:29 .
YUBILEINY 25 Jun 13:40:48 13:49:10 55° 90° (E) 13:57:36 435.215
NANOSAT C BR1 25 Jun 13:42:59 13:44:15 11° 268° (W) 13:45:31 145.865
QB50P1 25 Jun 13:44:29 13:45:06 10° 268° (W) 13:45:43 145.935-145.965
50 SAT 25 Jun 13:48:11 13:51:27 30° 287° (WNW) 13:54:42 437.505
TISAT 1 25 Jun 13:48:13 13:50:45 16° 94° (E) 13:53:18 437.305
SPROUT 25 Jun 13:48:33 13:52:50 75° 101° (ESE) 13:57:06 437.525
DX 1 25 Jun 13:52:52 13:57:04 51° 286° (WNW) 14:01:16 434.975-435.025
Cosmos 2491 25 Jun 13:58:47 14:07:15 58° 269° (W) 14:15:42 435.465 / 435.565
JAS-2 25 Jun 14:00:45 14:08:27 59° 259° (W) 14:15:41 435.910
PHONESAT 2.4 25 Jun 14:02:56 14:06:01 84° 202° (SSW) 14:09:07 2401.200-2431.200
PCSat 25 Jun 14:04:00 14:09:04 42° 250° (WSW) 14:14:07 145.827
VELOX 1 25 Jun 14:16:14 14:19:39 22° 291° (WNW) 14:23:03 145.980
CUBEBUG 1 25 Jun 14:18:13 14:21:16 19° 291° (WNW) 14:24:18 437.445
O/OREOS (USA 219) 25 Jun 14:27:57 14:32:26 85° 69° (ENE) 14:36:56 437.305
BEESAT 3 25 Jun 14:46:44 14:48:55 14° 251° (WSW) 14:51:06 437.485
Gurwin Techsat 1B 25 Jun 14:55:59 15:01:17 85° 76° (ENE) 15:06:38 435.225
Oscar 19 25 Jun 15:09:09 15:13:33 28° 263° (W) 15:17:59 437.125/150
Cosmos 2504 25 Jun 15:10:30 15:18:15 64° 92° (E) 15:26:37 435.465 / 435.565
BEESAT 2 25 Jun 15:17:50 15:19:30 12° 252° (WSW) 15:21:09 435.950
TISAT 1 25 Jun 15:22:40 15:26:28 34° 288° (WNW) 15:30:17 437.305
ITAMSAT 1 25 Jun 15:22:50 15:27:53 54° 73° (ENE) 15:32:59 435.822/435.867
AIST 2 25 Jun 15:27:44 15:31:35 35° 56° (NE) 15:35:23 435.215
YUBILEINY 25 Jun 15:39:10 15:46:18 28° 288° (WNW) 15:53:31 435.215
PHONESAT 2.4 25 Jun 15:40:52 15:42:18 13° 217° (SW) 15:43:43 2401.200-2431.200
SWISSCUBE 25 Jun 15:41:58 15:46:44 62° 101° (ESE) 15:51:27 437.505
RS-15 25 Jun 15:44:18 15:53:38 27° 323° (NW) 16:03:24 29.354- 29.394
AO-7 25 Jun 15:49:45 15:57:41 52° 66° (ENE) 16:05:40 29.400- 29.500
ITUPSAT 1 25 Jun 16:06:17 16:11:07 82° 284° (WNW) 16:15:54 437.325
BEESAT 25 Jun 16:07:40 16:12:28 77° 285° (WNW) 16:17:14 436.000
KKS-1 25 Jun 16:18:49 16:21:04 14° 93° (E) 16:23:18 437.445
SO-50 25 Jun 16:19:11 16:22:29 18° 109° (ESE) 16:25:49 436.795
HORYU 2 25 Jun 16:39:05 16:41:43 16° 66° (ENE) 16:44:22 437.375
STARS 25 Jun 16:59:48 17:03:01 20° 95° (E) 17:06:15 437.465
ITAMSAT 1 25 Jun 17:04:43 17:07:38 15° 267° (W) 17:10:34 435.822/435.867
Cosmos 2504 25 Jun 17:06:14 17:12:17 23° 291° (WNW) 17:18:41 435.465 / 435.565
AIST 2 25 Jun 17:07:04 17:09:45 17° 251° (WSW) 17:12:27 435.215
MOZHAYETS 4 25 Jun 17:18:09 17:22:46 63° 101° (E) 17:27:20
SWISSCUBE 25 Jun 17:22:02 17:23:56 12° 296° (WNW) 17:25:50 437.505
ISS 25 Jun 17:40:49 17:44:02 54° 40° (NE) 17:47:14 145.825
CUTE-I 25 Jun 17:41:31 17:43:09 11° 62° (ENE) 17:44:47 437.470
JUGNU 25 Jun 17:42:59 17:46:28 16° 171° (S) 17:49:58 437.505
AO-7 25 Jun 17:43:29 17:50:36 31° 262° (W) 17:57:47 29.400- 29.500
KKS-1 25 Jun 17:53:35 17:57:48 44° 287° (WNW) 18:02:01 437.445
SO-50 25 Jun 17:57:56 18:02:37 45° 303° (WNW) 18:07:19 436.795
LilacSat-2 25 Jun 18:05:57 18:07:17 12° 68° (ENE) 18:08:37 437.200
RS-15 25 Jun 18:07:23 18:12:33 13° 359° (N) 18:17:47 29.354- 29.394
NOAA 18 25 Jun 18:09:04 18:13:29 26° 67° (ENE) 18:17:55 137.9125
HORYU 2 25 Jun 18:13:46 18:17:54 40° 261° (W) 18:22:05 437.375
NOAA 15 25 Jun 18:17:32 18:22:24 38° 70° (ENE) 18:27:15 137.62
AIST 1 25 Jun 18:32:05 18:36:27 74° 278° (W) 18:40:45
STARS 25 Jun 18:35:32 18:39:22 30° 289° (WNW) 18:43:13 437.465
CUBESAT XI-V 25 Jun 18:36:22 18:40:50 47° 99° (E) 18:45:15 437.345
Cubesat XI-IV 25 Jun 18:41:56 18:46:59 45° 72° (ENE) 18:52:05 437.490
BRITE-PL 25 Jun 18:46:56 18:52:10 69° 76° (ENE) 18:57:02 437.365/2234.400
SRMSAT 25 Jun 18:52:37 18:54:25 11° 166° (SSE) 18:56:14 437.500
MOZHAYETS 4 25 Jun 18:57:54 18:59:20 11° 295° (WNW) 19:00:46
HO-68 25 Jun 19:01:00 19:03:24 12° 55° (NE) 19:05:48 435.675
CUTE-I 25 Jun 19:17:06 19:22:25 81° 255° (WSW) 19:27:49 437.470
ISS 25 Jun 19:19:14 19:20:05 11° 234° (SW) 19:20:57 145.825
DOVE 4 25 Jun 19:19:28 19:23:08 26° 72° (ENE) 19:26:41 437.250
JUGNU 25 Jun 19:30:48 19:34:47 18° 182° (S) 19:38:45 437.505
GONETS M04 25 Jun 19:37:27 19:46:05 72° 93° (E) 19:54:44
LilacSat-2 25 Jun 19:37:40 19:41:11 38° 262° (W) 19:44:44 437.200
GOMX 1 25 Jun 19:38:33 19:43:24 77° 259° (WSW) 19:47:54 467.674
CUTE 1.7 + AOD 2 25 Jun 19:42:12 19:42:53 10° 65° (ENE) 19:43:33 437.475
DANDE 25 Jun 19:44:31 19:48:04 19° 66° (ENE) 19:51:01 436.750
NOAA 18 25 Jun 19:48:57 19:53:55 36° 262° (W) 19:58:55 137.9125
CUSAT 1 25 Jun 19:52:56 19:56:41 60° 79° (E) 19:59:38 437.405
Cosmos 2499 25 Jun 19:56:39 20:04:35 63° 91° (E) 20:13:06 435.465 / 435.565
NOAA 15 25 Jun 19:58:07 20:02:13 23° 265° (W) 20:06:19 137.62
STRAND 1 25 Jun 20:12:21 20:16:56 31° 97° (E) 20:21:28 437.568
CUBESAT XI-V 25 Jun 20:15:16 20:17:46 15° 294° (WNW) 20:20:14 437.345
RS-15 25 Jun 20:22:08 20:31:47 25° 35° (NE) 20:41:23 29.354- 29.394
Cubesat XI-IV 25 Jun 20:23:33 20:27:14 19° 266° (W) 20:30:57 437.490
BRITE-PL 25 Jun 20:29:22 20:30:52 11° 268° (W) 20:32:22 437.365/2234.400
AAUSAT CUBESAT 2 25 Jun 20:38:48 20:41:44 19° 69° (ENE) 20:44:42 437.432
SRMSAT 25 Jun 20:39:02 20:42:50 18° 175° (S) 20:46:38 437.500
CINEMA 3 25 Jun 20:39:10 20:43:15 57° 76° (ENE) 20:47:20 145.822/145.860
HO-68 25 Jun 20:42:46 20:49:53 74° 71° (ENE) 20:57:02 435.675
AUBIESAT-1 25 Jun 20:48:45 20:50:43 15° 65° (ENE) 20:52:42 437.475
CANX-2 25 Jun 20:53:12 20:57:27 89° 96° (E) 21:01:47 2200.000
DOVE 4 25 Jun 20:57:20 21:00:46 22° 264° (W) 21:04:07 437.250
CUBEBUG 2 25 Jun 20:59:25 21:02:52 26° 71° (ENE) 21:06:22 437.445
COMPASS 1 25 Jun 21:08:12 21:12:18 55° 75° (ENE) 21:16:25 437.405
CUTE 1.7 + AOD 2 25 Jun 21:13:58 21:18:09 58° 260° (W) 21:22:24 437.475
JUGNU 25 Jun 21:20:12 21:23:04 14° 192° (SSW) 21:25:56 437.505
M-CUBED/EXP-1 PRIME 25 Jun 21:23:45 21:27:02 63° 72° (ENE) 21:30:16 437.505
SEEDS 25 Jun 21:24:04 21:28:15 63° 259° (W) 21:32:28 437.485
DANDE 25 Jun 21:26:52 21:31:00 26° 274° (W) 21:34:15 436.750
PRISM 25 Jun 21:32:46 21:36:20 29° 98° (E) 21:39:53 437.425
GONETS M04 25 Jun 21:37:30 21:43:39 21° 291° (WNW) 21:49:50
ZACube-1 25 Jun 21:39:56 21:43:42 34° 72° (ENE) 21:47:31 437.345
AO-85 25 Jun 21:49:19 21:52:59 19° 108° (ESE) 21:56:37 145.980
STRAND 1 25 Jun 21:51:42 21:55:56 26° 292° (WNW) 22:00:08 437.568
Cosmos 2499 25 Jun 21:51:57 21:58:19 24° 291° (WNW) 22:05:01 435.465 / 435.565
UWE-3 25 Jun 21:53:02 21:57:10 81° 78° (ENE) 22:01:24 435.000/436.395/437.385
Oscar 11 25 Jun 21:55:47 22:00:03 60° 75° (ENE) 22:04:20 145.826/435.025
FUNcube-1 25 Jun 21:59:01 22:03:04 55° 75° (ENE) 22:07:13 145.935
AAUSAT CUBESAT 2 25 Jun 22:13:21 22:17:00 29° 263° (W) 22:20:40 437.432
AUBIESAT-1 25 Jun 22:22:27 22:25:05 21° 258° (WSW) 22:27:41 437.475
SRMSAT 25 Jun 22:27:33 22:31:17 17° 186° (S) 22:35:01 437.500
HO-68 25 Jun 22:33:50 22:38:08 17° 267° (W) 22:42:29 435.675
RS-15 25 Jun 22:34:06 22:46:32 80° 60° (ENE) 22:58:45 29.354- 29.394
CUBEBUG 2 25 Jun 22:36:26 22:39:27 20° 265° (W) 22:42:31 437.445
DELFI C3 25 Jun 22:51:45 22:55:44 63° 259° (W) 22:59:45 145.870
TIGRISAT 25 Jun 22:54:44 22:57:34 16° 93° (E) 23:00:24 435.000
UNISAT 6 25 Jun 22:58:23 23:01:39 19° 95° (E) 23:04:55 437.425
PRISM 25 Jun 23:08:39 23:11:24 18° 292° (WNW) 23:14:09 437.425
ZACube-1 25 Jun 23:17:35 23:20:05 15° 267° (W) 23:22:36 437.345
HUMSAT D 25 Jun 23:20:59 23:25:05 66° 259° (W) 23:29:16 437.325/437.525
AO-85 25 Jun 23:27:46 23:33:06 54° 302° (WNW) 23:38:18 145.980
VELOX 1 25 Jun 23:34:34 23:37:23 17° 67° (ENE) 23:40:11 145.980
CUBEBUG 1 25 Jun 23:34:53 23:37:49 18° 68° (ENE) 23:40:45 437.445
ANTELSAT 25 Jun 23:37:16 23:41:48 51° 100° (E) 23:46:21 437.575/2403.000
QB50P1 25 Jun 23:55:41 23:56:37 11° 92° (E) 23:57:34 145.935-145.965
ESTCUBE 1 25 Jun 23:55:54 00:00:15 48° 74° (ENE) 00:04:38 437.505/2401.250
YUBILEINY 25 Jun 23:56:04 00:02:40 23° 70° (ENE) 00:09:12 435.215
POPSAT HIP 1 25 Jun 23:58:08 23:59:32 11° 92° (E) 00:00:56 437.405
QB50P2 26 Jun 00:08:21 00:11:10 17° 94° (E) 00:13:59 145.880/145.840
POLYITAN 1 26 Jun 00:10:54 00:13:47 18° 94° (E) 00:16:41 437.675
AISAT 26 Jun 00:13:21 00:17:35 49° 74° (ENE) 00:21:50 437.250
DUCHIFAT 1 26 Jun 00:15:02 00:17:49 17° 94° (E) 00:20:36 145.980
SRMSAT 26 Jun 00:18:26 00:19:42 11° 195° (SSW) 00:20:57 437.500
50 SAT 26 Jun 00:22:02 00:25:41 65° 77° (ENE) 00:29:23 437.505
